Terminal Aerodrome Forecast
Issued by NWS

Home | Current Version | Previous Version | Text Only | Print | Product List | Glossary On
Versions: 1 2 3 4 5 6 7 8 9 10 11 12 13 14 15 16 17 18 19 20
000
FTUS46 KPQR 190521
TAFONP
TAF
KONP 190521Z 1906/2006 09007KT P6SM BKN200
     FM190900 15010KT P6SM SCT060 OVC200
     FM191200 17014G24KT P6SM SCT030 OVC060
     FM191500 20018G28KT P6SM -RA BKN025 OVC040
     FM200100 22010KT P6SM BKN050=

USA.gov is the U.S. government's official web portal to all federal, state and local government web resources and services.